Weather Roundup
Issued by NWS Springfield, MO

Home | Current Version | Previous Version | Text Only | Print | Product List | Glossary On
Versions: 1 2 3 4 5 6 7 8 9 10 11 12 13 14 15 16 17 18 19 20 21 22 23 24 25 26 27 28 29 30 31 32 33 34 35 36 37 38 39 40 41 42 43 44 45 46 47 48 49 50
000
NZUS99 KSGF 270159
HRRSGF

HOURLY WEATHER
NATIONAL WEATHER SERVICE SPRINGFIELD MO
900 PM CDT THU MAR 26 2015

......SGF CWA......

CITY           SKY/WX    TMP DP  RH WIND       PRES   REMARKS
SPRINGFIELD    CLEAR     45  26  47 CALM      30.07S
JOPLIN         CLEAR     46  28  49 S5        30.08F
WEST PLAINS    CLEAR     44  25  47 MISG      30.07R
ROLLA          CLEAR     39  29  67 MISG      30.06R
OSAGE BEACH    CLEAR     43  27  52 NE3       30.08S
BRANSON        PTCLDY    45  28  53 NW6       30.09R

......SURROUNDING SGF CWA......

CITY           SKY/WX    TMP DP  RH WIND       PRES   REMARKS
CHANUTE        PTCLDY    44  31  60 S7        30.06S
PARSONS        PTCLDY    46  30  53 CALM      30.08S
COFFEYVILLE    CLEAR     45  33  63 SE7       30.07F
EMPORIA        LGT RAIN  49  33  54 NE7       30.04S
SILOAM SPRINGS CLEAR     45  28  53 CALM      30.12S
HARRISON AR    CLEAR     44  30  57 NW6       30.09R
NEAR YELLVILLE CLEAR     46  28  49 CALM      30.08R

......KANSAS AND MISSOURI......

CITY           SKY/WX    TMP DP  RH WIND       PRES   REMARKS
KANSAS CTY INT CLOUDY    45  29  53 NW6       30.10R
DOWNTOWN KC    CLOUDY    49  26  41 N9        30.10R
COLUMBIA       MOCLDY    43  28  55 NW5       30.07S
SEDALIA        CLOUDY    46  28  49 CALM      30.09R
ST JOSEPH      LGT RAIN  40  35  83 N13       30.14R WCI  32
ST LOUIS       FAIR      45  26  47 NW3       30.08R
SPIRIT OF STL  CLEAR     37  30  75 W5        30.07R WCI  33
KIRKSVILLE     CLOUDY    42  27  55 N9        30.09R
WICHITA        MOCLDY    51  32  48 S9        30.01S
TOPEKA         CLOUDY    48  30  49 NE10      30.09R
OLATHE         CLOUDY    48  27  44 N5        30.09R

......TENNESSEE......

CITY           SKY/WX    TMP DP  RH WIND       PRES   REMARKS
MEMPHIS        PTCLDY    45  38  76 N10       30.04R
NASHVILLE      LGT RAIN  44  40  85 N7        30.01R

......ARKANSAS.......

CITY           SKY/WX    TMP DP  RH WIND       PRES   REMARKS
FAYETTEVILLE   CLEAR     43  33  68 NW5       30.10R
FT SMITH       CLEAR     53  29  39 N9        30.10S
LITTLE ROCK    CLEAR     50  36  58 N6        30.07R

......OKLAHOMA.......

CITY           SKY/WX    TMP DP  RH WIND       PRES   REMARKS
TULSA          PTCLDY    52  29  41 SE3       30.09S
PONCA CITY     MOCLDY    53  29  39 S5        30.05F
MCALESTER      PTCLDY    46  32  58 CALM      30.13R
OKLAHOMA CITY  PTCLDY    50  32  50 S6        30.10F

......IOWA............

CITY           SKY/WX    TMP DP  RH WIND       PRES   REMARKS
DES MOINES     CLOUDY    38  23  55 N7        30.15R WCI  33
QUAD CITIES    CLEAR     34  21  59 N13       30.09R WCI  25

......ILLINOIS........

CITY           SKY/WX    TMP DP  RH WIND       PRES   REMARKS
QUINCY         MOCLDY    41  27  57 N7        30.07R
CHICAGO        CLOUDY    35  21  56 NW9       30.03R WCI  28




USA.gov is the U.S. government's official web portal to all federal, state and local government web resources and services.